Location: Lac de la Montagne noire
(46.1952°N, 74.2701°W)
Time: 14:35:01
(UTC-04:00)

Envisat - Visible Passes

Search period start: 24 June 2018 00:00
Search period end: 04 July 2018 00:00
Orbit: 764 x 766 km, 98.2° (Epoch: 24 June)

Date Brightness Start Highest point End Pass type
(mag) Time Alt. Az. Time Alt. Az. Time Alt. Az.
25 Jun 5.7 21:39:00 10° WSW 21:41:39 14° W 21:44:18 10° NW visible
28 Jun 5.6 21:26:58 10° SW 21:30:21 18° W 21:33:45 10° NW visible
03 Jul 5.8 21:42:43 10° WSW 21:44:58 13° W 21:47:13 10° WNW visible
